Vancouver, British Columbia

11:41 AM PDT on May 25, 2017 (GMT -0700)
Vancouver International Airport

Weather History for CYVR - November, 2013

Change the Weather History Date:

Tuesday, November 5, 2013

  Actual Average Record
Temperature  
Mean Temperature 42 °F -  
Max Temperature 45 °F 47 °F 59 °F (2002)
Min Temperature 39 °F 36 °F 26 °F (2003)
Degree Days  
Heating Degree Days 23    
Moisture  
Dew Point 38 °F    
Average Humidity 85    
Maximum Humidity 100    
Minimum Humidity 70    
Precipitation  
Precipitation 0.04 in 0.22 in - ()
Sea Level Pressure  
Sea Level Pressure 30.11 in    
Wind  
Wind Speed 6 mph ()    
Max Wind Speed 13 mph    
Max Gust Speed -    
Visibility 10.7 miles    
Events Rain    
Averages and records for this station are not official NWS values.
T = Trace of Precipitation, MM = Missing Value Source: Averaged Metar Reports

Daily Weather History Graph

Daily Weather History Graph

Search for Another Location

Airport or City:

Trip Planner

Search our weather history database for the weather conditions in past years. The results will help you decide how hot, cold, wet, or windy it might be!

Date:

Astronomy

Nov. 05, 2013 Rise Set
Actual Time 7:07 AM PST 4:44 PM PST
Civil Twilight 6:33 AM PST 5:18 PM PST
Nautical Twilight 5:55 AM PST 5:56 PM PST
Astronomical Twilight 5:18 AM PST 6:33 PM PST
Moon 9:36 AM PST (11/5) 6:43 PM PST (11/5)
Length of Visible Light 10h 44m
Length of Day
9h 37m
Waxing Crescent, 7% of the Moon is Illuminated
Nov 5
Waxing Crescent
Nov 9
First Quarter
Nov 17
Full
Nov 25
Last Quarter
Dec 2
New

Hourly Weather History & Observations

Time (PST) Temp. Windchill Dew Point Humidity Pressure Visibility Wind Dir Wind Speed Gust Speed Precip Events Conditions
12:00 AM 42.8 °F 36.6 °F 35.6 °F 76% 30.09 in 15.0 mi East 11.5 mph - N/A   Overcast
1:00 AM 42.8 °F 37.5 °F 33.8 °F 70% 30.10 in 15.0 mi ENE 9.2 mph - N/A   Overcast
1:23 AM 42.8 °F 37.0 °F 33.8 °F 70% 30.10 in 12.0 mi ENE 10.4 mph - N/A Rain Light Rain
2:00 AM 41.0 °F 33.9 °F 33.8 °F 76% 30.09 in 12.0 mi ENE 12.7 mph - N/A Rain Light Rain Showers
2:34 AM 41.0 °F 36.4 °F 33.8 °F 76% 30.09 in 12.0 mi ENE 6.9 mph - N/A   Overcast
3:00 AM 41.0 °F 36.4 °F 33.8 °F 76% 30.08 in 12.0 mi ENE 6.9 mph - N/A   Overcast
4:00 AM 41 °F - 35 °F 71% 30.08 in 12 mi ENE 4.6 mph - -   Overcast
4:00 AM 41.0 °F 38.0 °F 35.6 °F 81% 30.08 in 12.0 mi ENE 4.6 mph - N/A   Overcast
4:28 AM 41.0 °F 37.1 °F 35.6 °F 81% 30.07 in 12.0 mi ENE 5.8 mph - N/A Rain Light Rain
4:43 AM 41.0 °F 36.4 °F 35.6 °F 81% 30.07 in 12.0 mi East 6.9 mph - N/A   Overcast
5:00 AM 41.0 °F 36.4 °F 35.6 °F 81% 30.06 in 12.0 mi East 6.9 mph - N/A   Overcast
5:36 AM 41.0 °F - 35.6 °F 81% 30.06 in 12.0 mi NE 2.3 mph - N/A Rain Light Rain
6:00 AM 41.0 °F 39.0 °F 37.4 °F 87% 30.06 in 12.0 mi North 3.5 mph - N/A Rain Light Rain Showers
6:52 AM 41.0 °F - 37.4 °F 87% 30.07 in 5.0 mi NNE 2.3 mph - N/A   Light Drizzle
7:00 AM 41.0 °F - 37.4 °F 87% 30.07 in 4.0 mi North 2.3 mph - N/A   Light Drizzle
8:00 AM 39.2 °F - 39.2 °F 100% 30.08 in 3.0 mi Calm Calm - N/A   Light Drizzle
8:22 AM 41.0 °F - 39.2 °F 93% 30.09 in 3.0 mi Calm Calm - N/A Rain Light Rain
8:28 AM 41.0 °F - 39.2 °F 93% 30.09 in 3.0 mi Calm Calm - N/A Rain Light Rain
9:00 AM 41.0 °F - 39.2 °F 93% 30.09 in 5.0 mi NNW 2.3 mph - N/A Rain Light Rain
9:19 AM 41.0 °F - 39.2 °F 93% 30.09 in 8.0 mi NNW 2.3 mph - N/A   Overcast
10:00 AM 42 °F - 40 °F 88% 30.09 in 10 mi NNE 2.3 mph - - Rain Light Rain
10:00 AM 42.8 °F - 39.2 °F 87% 30.09 in 10.0 mi Calm Calm - N/A   Overcast
11:00 AM 42.8 °F - 39.2 °F 87% 30.09 in 10.0 mi Calm Calm - N/A   Overcast
12:00 PM 42.8 °F - 39.2 °F 87% 30.09 in 8.0 mi NNW 2.3 mph - N/A   Overcast
12:55 PM 42.8 °F 38.0 °F 39.2 °F 87% 30.09 in 8.0 mi NW 8.1 mph - N/A Rain Light Rain Showers
1:00 PM 42.8 °F 38.0 °F 39.2 °F 87% 30.09 in 8.0 mi NW 8.1 mph - N/A Rain Light Rain Showers
2:00 PM 42.8 °F 39.3 °F 41.0 °F 93% 30.11 in 8.0 mi NW 5.8 mph - N/A Rain Light Rain Showers
2:36 PM 42.8 °F 38.6 °F 41.0 °F 93% 30.11 in 8.0 mi NW 6.9 mph - N/A   Overcast
3:00 PM 42.8 °F 40.1 °F 41.0 °F 93% 30.11 in 10.0 mi West 4.6 mph - N/A   Overcast
4:00 PM 44 °F - 40 °F 80% 30.13 in 12 mi West 8.1 mph - -   Partly Cloudy
4:00 PM 44.6 °F 40.2 °F 39.2 °F 81% 30.13 in 12.0 mi WNW 8.1 mph - N/A   Overcast
5:00 PM 44.6 °F 38.8 °F 39.2 °F 81% 30.15 in 15.0 mi West 11.5 mph - N/A   Mostly Cloudy
6:00 PM 44.6 °F 39.2 °F 41.0 °F 87% 30.17 in 15.0 mi West 10.4 mph - N/A   Mostly Cloudy
7:00 PM 44.6 °F 39.2 °F 41.0 °F 87% 30.19 in 15.0 mi West 10.4 mph - N/A   Mostly Cloudy
8:00 PM 44.6 °F 39.2 °F 41.0 °F 87% 30.20 in 15.0 mi WNW 10.4 mph - N/A   Overcast
9:00 PM 42.8 °F 41.1 °F 39.2 °F 87% 30.21 in 15.0 mi North 3.5 mph - N/A   Partly Cloudy
10:00 PM 40 °F - 37 °F 86% 30.24 in 15 mi ENE 2.3 mph - -   Partly Cloudy
10:00 PM 39.2 °F 37.0 °F 37.4 °F 93% 30.24 in 15.0 mi East 3.5 mph - N/A   Scattered Clouds
11:00 PM 42.8 °F - 39.2 °F 87% 30.25 in 15.0 mi ESE 2.3 mph - N/A   Overcast